Helicity
59 47 41 4 13 -20 46 18 10 128 105 118 140 151 146 159 227 183 189 219 237 225 158 139 94 102 85 51 102 115 98 85 76 81 68 66 74 69 65 63 73 45 56 36
85 30 -29 9 18 10 19 11 12 128 98 16 112 141 141 162 139 144 175 211 206 191 151 150 136 78 64 105 111 93 80 82 61 54 59 54 52 47 63 66 54 62 46 40
41 3 -1 36 36 20 20 -3 16 29 76 28 154 119 153 164 172 186 175 204 175 168 189 165 102 68 118 126 97 77 73 64 57 47 66 50 43 49 69 51 51 48 50 49
29 -1 66 40 20 35 14 31 -3 58 30 63 38 60 130 129 136 166 188 195 216 228 148 130 83 126 139 114 77 64 49 61 69 63 52 44 50 59 50 47 49 38 46 52
47 25 54 39 23 18 -22 78 16 14 30 1 128 66 203 151 129 157 197 247 276 190 128 106 111 137 122 91 83 59 63 81 67 56 51 40 53 38 42 52 35 46 50 60
-4 19 25 2 20 -8 12 47 23 23 13 52 108 1 172 82 94 183 209 255 235 157 116 93 131 126 120 101 78 67 75 81 72 59 52 49 48 40 43 50 46 51 62 67
2 17 12 1 61 40 37 42 44 44 54 41 41 45 202 192 131 237 247 241 188 142 111 101 105 154 127 96 76 55 81 101 83 65 55 52 45 42 41 48 54 47 67 70
52 66 25 46 32 40 34 18 -33 16 17 84 63 89 144 161 195 249 211 175 168 131 72 127 167 129 96 92 82 66 87 105 83 69 57 53 48 50 49 55 63 71 72 73
24 32 71 30 -16 -7 33 -24 10 37 31 41 64 190 151 142 253 191 166 205 138 103 111 160 133 98 99 88 113 81 71 90 85 65 60 52 50 49 51 54 67 77 71 71
23 28 61 51 -3 9 2 6 23 29 -12 5 23 145 171 136 217 188 173 167 121 107 140 147 105 100 98 77 112 97 77 91 79 67 58 53 44 49 55 64 68 68 70 68
52 22 73 89 28 27 35 9 7 30 28 29 1 128 115 146 164 165 143 134 120 130 127 129 99 106 97 80 107 113 98 80 78 63 54 48 46 50 62 69 70 72 71 77
31 33 85 61 7 8 59 43 34 17 38 65 46 135 99 193 183 140 133 126 130 118 114 105 101 94 102 101 105 121 94 79 73 58 53 54 50 56 64 63 63 68 73 81
45 78 26 59 77 41 16 39 38 53 39 11 43 112 96 193 178 136 134 133 122 114 124 98 101 104 89 120 105 101 92 81 63 54 51 58 54 58 55 57 62 66 77 80
61 37 19 38 11 48 31 54 16 26 14 36 90 176 163 169 155 129 129 116 110 100 85 124 96 82 117 110 98 94 90 74 61 55 52 61 56 50 53 58 63 71 80 87
57 45 55 78 58 37 30 27 35 14 54 33 148 138 130 140 123 120 116 100 94 104 87 100 100 125 126 111 98 91 81 73 62 62 58 55 51 46 50 60 63 76 82 92
116 85 60 88 82 48 68 61 92 106 86 110 162 133 149 123 128 120 96 87 93 89 98 102 116 121 113 106 91 93 88 70 58 63 57 52 45 48 54 59 65 71 77 87
90 48 51 83 72 83 60 80 97 112 66 114 112 131 137 120 109 92 82 81 97 94 104 113 120 114 98 94 73 87 74 67 60 58 53 47 43 51 55 54 60 63 72 80
73 33 77 57 64 25 118 122 101 96 98 95 210 132 100 107 94 74 66 92 103 105 115 114 108 95 79 73 68 68 67 62 62 55 50 45 42 48 52 55 59 62 73 81
51 101 99 67 36 83 63 59 98 115 103 114 158 127 131 130 123 86 72 79 94 101 101 100 92 78 71 62 61 62 67 65 59 52 49 44 45 48 47 51 59 66 73 84
75 69 68 37 85 37 53 78 59 125 105 115 112 140 152 116 84 69 96 102 104 100 91 89 80 70 62 52 58 59 62 60 50 47 51 50 47 49 47 54 54 63 65 76
74 62 47 59 47 107 96 77 80 33 99 124 111 122 86 13 44 137 119 103 87 84 88 79 70 63 48 48 54 63 64 59 46 47 51 51 42 43 42 44 50 56 60 77
80 65 39 45 55 52 93 92 46 98 76 146 130 91 120 109 119 143 119 104 91 88 78 69 69 54 38 39 49 58 59 51 45 46 52 51 40 45 44 37 44 46 58 68
67 52 66 108 81 54 100 29 89 62 131 128 123 161 127 100 112 124 123 92 76 74 67 60 63 52 39 41 37 47 43 45 44 46 45 48 41 47 45 38 39 55 58 80
143 133 112 78 98 149 146 128 95 70 97 101 148 138 94 115 109 112 89 78 66 63 63 59 58 52 48 40 35 32 38 62 67 51 40 46 48 43 52 56 61 67 75 83
91 95 107 110 118 133 118 108 129 91 118 158 98 96 99 111 90 93 86 71 61 65 56 47 52 48 41 30 27 20 18 25 45 46 37 39 45 44 51 84 98 93 100 123
58 86 56 28 111 76 201 165 102 133 154 123 149 103 56 83 97 92 75 60 63 65 51 52 51 46 38 30 14 19 16 17 22 44 49 38 40 44 52 62 79 157 148 193
Wind_Speed
28 41 34 22 16 29 40 39 30 20 29 28 27 18 16 17 21 20 22 23 25 26 27 29 32 37 39 42 49 55 59 65 67 65 66 66 66 63 61 61 65 65 67 67
33 48 46 29 30 8 21 25 26 28 27 22 21 23 19 16 17 18 19 19 20 23 25 28 33 37 39 46 51 56 61 64 67 66 66 66 63 62 61 64 63 65 65 65
28 48 31 38 24 9 14 23 25 34 21 20 16 24 18 20 21 22 21 18 19 20 23 30 33 35 41 47 52 57 61 64 66 69 67 66 63 63 65 65 65 67 65 64
39 61 41 30 13 12 20 12 21 18 18 23 4 43 14 16 20 20 19 16 18 22 24 30 32 36 42 46 51 57 61 64 66 68 68 69 69 70 66 66 67 65 65 63
39 63 45 39 18 11 19 26 24 17 14 31 16 29 24 17 21 15 14 14 18 20 24 29 33 37 43 46 51 57 61 64 66 67 67 68 67 65 65 67 68 67 63 64
66 39 36 28 21 11 18 23 23 18 13 22 40 19 21 25 16 11 12 14 17 20 24 27 33 37 44 48 53 58 62 63 65 66 66 66 67 66 70 72 70 69 66 64
38 35 34 23 17 9 7 8 12 12 3 30 27 44 37 36 34 14 14 16 18 19 23 27 31 39 45 49 54 60 61 63 65 65 66 66 65 65 68 71 70 68 68 67
36 29 19 10 14 16 8 5 2 32 43 24 25 42 35 34 34 26 22 23 22 21 22 28 35 39 43 48 55 61 62 64 64 65 66 65 64 64 64 67 66 65 65 63
25 33 16 14 12 10 11 11 34 51 43 48 36 31 33 32 32 28 26 24 23 22 25 31 35 39 44 48 55 60 62 62 63 65 64 63 62 63 65 62 63 63 59 61
48 39 18 15 17 24 28 6 17 13 35 35 37 32 32 24 27 25 24 24 25 25 28 32 36 40 45 48 52 58 60 61 62 62 62 61 60 60 60 59 62 58 62 62
41 47 18 15 15 8 10 14 18 49 39 45 47 35 34 19 21 22 24 25 26 27 29 33 37 42 45 49 53 57 58 59 59 59 60 60 61 59 59 59 56 59 60 61
44 42 21 17 13 35 48 19 17 19 23 27 38 33 29 24 23 24 27 28 29 30 32 35 39 42 47 50 53 56 56 58 58 58 59 61 59 56 56 50 55 59 58 57
34 40 27 9 21 19 25 37 41 31 39 42 34 30 22 25 27 28 29 30 30 32 35 37 42 46 47 49 53 54 56 57 56 57 59 62 58 53 48 49 54 57 57 56
42 45 40 27 25 13 12 19 7 17 34 34 33 20 20 23 26 29 30 31 32 32 34 40 41 44 49 49 51 53 55 56 56 57 60 60 54 49 43 50 53 54 55 57
41 35 29 30 8 5 4 5 15 21 32 33 21 18 20 25 27 30 32 32 33 34 35 40 42 47 48 49 51 52 54 55 55 57 59 56 50 39 46 50 51 54 56 58
39 24 16 14 12 8 9 14 19 21 25 26 21 22 26 30 32 32 33 33 34 35 38 40 44 46 48 48 51 52 53 55 54 57 58 54 43 44 49 49 50 55 56 57
25 15 15 20 10 9 16 13 15 20 25 18 18 24 32 31 31 33 34 34 36 37 39 42 45 46 47 48 50 53 53 53 54 56 56 52 44 46 49 49 53 56 56 56
31 21 24 16 8 24 20 17 15 18 22 22 27 32 32 33 35 36 35 37 38 39 41 43 46 46 46 48 51 51 51 53 56 55 54 51 46 48 48 49 55 56 56 56
39 30 24 22 15 19 15 8 10 14 18 22 31 34 35 38 40 39 38 39 40 41 43 45 45 45 47 48 50 52 53 54 57 55 52 51 48 49 48 50 54 54 53 56
41 41 30 11 9 25 20 14 16 20 18 27 36 37 39 40 33 35 39 41 43 44 45 46 46 47 48 49 51 54 57 57 58 54 51 50 50 50 49 50 54 55 56 59
36 29 21 7 8 25 12 19 17 9 15 37 38 38 41 33 27 43 44 44 44 45 47 47 47 48 48 49 51 56 57 58 52 49 49 52 52 51 52 51 55 58 59 64
33 30 34 12 12 21 20 22 13 18 33 43 39 42 37 39 47 48 46 45 46 47 47 47 48 48 48 48 51 56 58 53 50 49 50 53 53 54 56 58 59 63 61 62
46 48 28 32 25 16 32 16 17 29 39 41 43 41 40 44 47 49 48 47 47 47 48 47 48 49 49 52 53 56 53 51 51 51 54 55 54 57 59 63 65 70 68 67
38 31 27 10 12 25 20 21 25 34 39 43 43 44 45 47 49 49 48 47 47 48 48 48 48 49 50 50 52 53 51 47 50 55 55 55 56 54 59 62 63 67 71 71
39 27 12 5 19 16 23 26 32 36 41 43 44 46 47 49 49 48 48 47 47 48 48 47 48 48 49 49 51 51 51 49 52 55 56 56 55 53 53 54 56 59 59 62
35 22 20 7 27 13 30 35 39 43 42 46 47 47 48 50 50 48 47 48 48 48 48 48 49 48 46 47 48 51 51 52 51 56 57 55 55 54 52 51 51 49 52 53
Wind_Direction
285 284 288 291 285 298 315 313 325 351 348 350 350 4 2 6 5 6 8 13 15 22 33 32 29 21 18 17 11 7 4 2 360 360 359 357 356 357 358 358 357 356 355 354
279 278 283 295 296 278 314 318 322 342 349 346 3 359 5 10 12 14 14 17 30 33 33 30 22 19 19 14 11 8 5 4 4 2 1 359 359 359 359 358 358 358 357 356
254 283 273 285 291 284 298 308 321 327 353 350 6 354 8 14 18 16 20 29 35 36 30 25 21 22 19 14 10 8 6 6 6 4 3 3 2 1 0 0 0 359 358 358
265 265 281 281 276 291 299 302 322 337 349 340 87 340 354 8 8 14 23 35 43 31 34 27 26 22 17 14 12 10 8 7 6 6 5 3 1 359 1 1 1 360 0 0
263 258 270 276 286 275 302 327 327 327 331 334 330 336 6 21 1 14 31 47 40 44 36 29 29 24 19 16 13 10 8 7 7 7 7 5 5 4 4 3 1 2 3 2
252 269 270 281 289 281 309 321 330 339 330 324 337 352 358 3 359 30 60 64 56 51 39 38 31 27 20 16 13 11 8 8 9 8 8 8 7 5 2 2 2 2 3 3
252 269 274 278 292 306 308 319 349 351 298 326 348 335 351 2 11 67 79 81 70 57 44 37 32 24 18 16 13 10 9 10 10 10 10 10 9 8 5 4 4 3 3 3
245 236 244 247 263 295 252 220 252 332 315 353 359 341 357 9 24 58 77 89 66 59 51 37 29 24 21 17 14 11 12 11 12 11 11 11 11 10 9 8 7 7 7 7
239 259 217 241 252 273 297 201 305 303 318 317 333 2 18 32 45 62 82 71 63 60 51 36 31 26 21 17 16 15 13 14 14 13 13 13 13 13 10 12 12 10 11 8
257 255 212 258 260 281 302 312 324 339 322 328 343 1 4 39 45 64 67 64 64 61 48 39 33 27 22 20 19 17 17 17 16 16 16 15 15 14 14 14 12 14 11 9
255 249 251 252 239 225 264 303 316 294 322 325 331 356 13 43 56 62 68 67 66 57 48 39 33 27 25 22 20 19 20 20 19 19 17 17 16 16 16 16 17 15 13 12
247 250 254 244 219 270 278 174 184 328 345 351 340 352 17 50 63 70 70 68 64 58 51 41 35 31 25 24 23 23 23 22 21 21 19 18 18 20 20 23 20 18 16 16
240 253 253 231 279 269 279 278 279 314 321 326 342 2 48 58 65 70 71 69 64 59 50 44 34 29 27 28 26 27 26 25 24 23 21 20 21 25 27 25 22 21 20 20
238 253 253 264 270 255 246 294 335 334 328 344 352 39 60 72 73 76 73 71 66 61 53 42 38 34 31 32 31 30 29 28 27 26 24 24 28 29 31 27 25 24 24 23
235 252 261 281 274 142 307 320 333 334 333 342 26 40 86 87 84 81 78 73 69 61 54 44 39 35 35 36 34 34 32 31 30 29 27 29 32 37 33 30 28 28 27 27
236 249 245 284 290 315 330 336 343 353 358 8 39 61 87 88 85 83 80 77 70 63 54 48 42 40 41 40 36 37 35 34 34 32 32 32 39 38 35 33 32 31 31 30
232 216 243 269 289 322 318 345 10 5 359 45 75 89 98 92 88 88 84 80 72 65 57 51 46 46 47 44 42 38 39 38 37 36 35 37 41 39 37 36 35 34 33 32
231 228 258 265 289 288 321 342 6 18 33 47 80 100 98 93 88 86 85 80 73 65 61 54 52 54 55 50 44 44 43 42 40 40 39 40 42 40 40 39 38 37 36 35
227 238 257 269 280 319 341 352 56 61 40 71 99 103 98 93 86 78 79 78 74 69 63 62 65 63 58 53 48 47 46 44 42 43 44 42 44 44 44 43 41 40 39 38
227 241 259 269 261 304 327 104 86 65 35 102 114 110 107 105 85 84 86 81 75 71 70 69 70 66 61 56 53 50 46 45 45 46 47 47 48 50 49 47 45 44 44 42
226 236 261 268 311 308 43 103 89 79 48 123 119 114 115 107 93 101 93 85 80 76 75 75 73 67 63 60 57 50 49 49 52 53 54 52 54 54 52 51 50 49 49 46
222 237 249 275 305 315 108 104 84 26 105 121 118 117 105 86 93 99 95 89 84 78 80 77 75 69 67 64 60 54 53 57 58 59 59 59 59 59 55 55 54 52 51 49
229 231 252 260 287 43 118 78 47 101 116 119 118 112 105 102 102 101 96 91 88 84 83 82 79 73 71 64 62 57 60 62 62 62 61 62 64 63 61 57 55 51 51 50
235 248 258 295 14 90 72 73 89 109 115 117 114 113 112 108 107 102 97 94 90 89 86 85 83 75 72 67 65 65 65 69 68 63 64 66 66 67 65 63 60 56 51 50
244 241 252 348 98 71 93 97 108 112 114 112 113 115 114 112 109 106 100 97 95 92 91 89 85 80 76 71 68 67 67 69 69 67 67 68 68 68 67 65 62 58 55 53
240 236 252 285 136 68 117 114 118 120 120 119 118 116 115 115 112 108 101 100 98 96 94 91 87 87 85 78 72 67 67 68 71 67 67 68 67 67 67 64 62 62 57 57